Home > Weather > Mostar > Past weeks

Flag for Bosnia-Herzegovina Past Weather in Mostar, Bosnia-Herzegovina — Yesterday and Last 2 Weeks

Now
75 °F

Clear.


Feels Like: 78 °F
Forecast: 61 / 96 °F
Wind: 2 mph from North

Location: Mostar

Current Time: Aug 26, 2016 at 12:19:14 AM

Latest Report: Aug 26, 2016 at 12:00 AM


Visibility: 10 mi

Pressure: 30.01 "Hg

Humidity: 54%

Dew Point: 57 °F

Location of MostarLocation

Past Weather in Mostar — Graph

°F

Mostar Temperature Yesterday

Maximum temperature yesterday: 93 °F (at 2:00 PM)
Minimum temperature yesterday: 68 °F (at 4:00 AM)
Average temperature yesterday: 80 °F

High & Low Weather Summary for the Past Weeks

 TemperatureHumidityPressure
High95 °F (Aug 15, 3:00 PM)88% (Aug 19, 7:00 AM)30.15 "Hg (Aug 19, 7:00 AM)
Low52 °F (Aug 13, 6:00 AM)20% (Aug 14, 3:00 PM)29.77 "Hg (Aug 17, 2:30 PM)
Average76 °F49%29.96 "Hg
* Reported Aug 10 11:00 PM — Aug 25 11:00 PM, Mostar, Weather by CustomWeather, © 2016

Note: Actual official high and low records may vary slightly from our data, if they occured in-between our weather recording intervals... More about our weather records

Advertising

Mostar Weather History for the Previous 24 Hours

Scroll right to see more
 ConditionsComfort  
Time TempWeatherWind HumidityBarometerVisibility
11:00 PM
Thu, Aug 25
77 °FPassing clouds.3 mph51%29.98 "HgN/A
10:00 PM79 °FClear.3 mph48%29.98 "Hg10 mi
9:00 PM81 °FPassing clouds.2 mph45%29.98 "HgN/A
8:00 PM82 °FPassing clouds.2 mph42%29.95 "HgN/A
7:00 PM86 °FPassing clouds.5 mph35%29.92 "HgN/A
6:00 PM90 °FPassing clouds.10 mph31%29.92 "HgN/A
5:00 PM91 °FPassing clouds.10 mph30%29.92 "HgN/A
4:00 PM91 °FPassing clouds.9 mph28%29.92 "HgN/A
3:00 PM93 °FPassing clouds.6 mph26%29.92 "HgN/A
2:00 PM93 °FPassing clouds.8 mph28%29.95 "HgN/A
1:00 PM91 °FPassing clouds.9 mph30%29.95 "HgN/A
12:30 PM90 °FPassing clouds.8 mph31%29.95 "HgN/A
12:00 PM88 °FPassing clouds.7 mph31%29.95 "HgN/A
11:30 AM86 °FPassing clouds.10 mph35%29.98 "HgN/A
11:00 AM86 °FPassing clouds.9 mph35%29.98 "HgN/A
10:30 AM86 °FPassing clouds.9 mph35%29.98 "HgN/A
10:00 AM84 °FPassing clouds.6 mph37%29.98 "HgN/A
9:30 AM82 °FPassing clouds.3 mph40%29.98 "HgN/A
9:00 AM79 °FPassing clouds.2 mph48%29.98 "HgN/A
8:30 AM77 °FPassing clouds.6 mph51%29.98 "HgN/A
8:00 AM75 °FPassing clouds.3 mph54%29.98 "HgN/A
7:30 AM72 °FPassing clouds.5 mph61%29.98 "HgN/A
7:00 AM68 °FPassing clouds.3 mph69%29.98 "HgN/A
6:30 AM68 °FPassing clouds.6 mph69%29.98 "HgN/A
6:00 AM68 °FPassing clouds.3 mph64%29.98 "HgN/A
5:00 AM68 °FPassing clouds.3 mph64%29.98 "HgN/A
4:00 AM68 °FPassing clouds.3 mph64%29.98 "HgN/A
3:00 AM70 °FPassing clouds.3 mph60%30.01 "HgN/A
2:00 AM70 °FPassing clouds.2 mph60%30.01 "HgN/A
1:00 AM72 °FPassing clouds.2 mph57%30.01 "HgN/A
12:00 AM72 °FPassing clouds.3 mph57%30.01 "HgN/A
Weather by CustomWeather, © 2016

See weather overviewHow to use our weather pages